{"data":{"norad_id":52292,"intl_designator":"2022-041AH","name":"STARLINK-3753","alt_names":[],"object_type":"PAYLOAD","status":"ACTIVE","operator":null,"country":"US","launch_date":"2022-04-21","launch_site_code":"AFETR","launch_vehicle":null,"mission":null,"orbit_class":"UNKNOWN","rcs_meters":null,"size_class":null,"mass_kg":null,"dimensions":null,"purposes":["comms"],"wikipedia_slug":null,"has_3d_model":false,"image_url":null,"decayed_at":null,"tle_current":{"epoch":"2026-09-19T17:17:59.904672Z","epoch_age_seconds":126864,"freshness":"FRESH","line1":"1 52292U 22041AH  26262.72083223  .00000009  00000+0  11398-4 0  9998","line2":"2 52292  53.1608 295.0158 0001124  37.4993 322.6088 15.34393969243974","mean_motion":15.34393969,"eccentricity":0.0001124,"inclination_deg":53.1608,"raan_deg":295.0158,"arg_perigee_deg":37.4993,"mean_anomaly_deg":322.6088,"bstar":1.1398e-5,"rev_number":24397,"period_min":93.848126953893,"perigee_km":461.95225321097,"apogee_km":463.49007812662,"semimajor_km":6840.8581656688,"source":"CELESTRAK","updated_at":"2026-09-20T09:00:40.016523Z"}}}